User: anonymous   Login
Location: Unspecified
(0.0000°N, 0.0000°E)
Time: 18:08:35
(UTC+00:00)
Language:

CBERS 2B - Orbit

View from above orbital plane
View from above orbital plane
View from above satellite
View from above satellite

Ground track
Ground track

The orbit data is extracted from the following two-line orbital elements,

1 32062U 07042A   18115.41526321  .00000147  00000-0  59577-4 0  9995
2 32062  98.1110 138.8842 0030985 319.2701  40.6174 14.39664306556579
Epoch (UTC): 25 April 2018 09:57:58
Eccentricity: 0.0030985
inclination: 98.1110°
perigee height: 737 km
apogee height: 782 km
right ascension of ascending node: 138.8842°
argument of perigee: 319.2701°
revolutions per day: 14.39664306
mean anomaly at epoch: 40.6174°
orbit number at epoch: 55657

The dashed part of the orbit path shows where the satellite is in the earth's shadow,  

DLR